{"data":{"norad_id":43001,"intl_designator":"2017-069A","name":"BEIDOU-3 M1 (C19)","alt_names":[],"object_type":"PAYLOAD","status":"ACTIVE","operator":null,"country":"PRC","launch_date":"2017-11-05","launch_site_code":"XICLF","launch_vehicle":null,"mission":null,"orbit_class":"UNKNOWN","rcs_meters":null,"size_class":null,"mass_kg":null,"dimensions":null,"purposes":["nav"],"wikipedia_slug":null,"has_3d_model":false,"image_url":null,"decayed_at":null,"tle_current":{"epoch":"2026-09-19T15:17:31.833600Z","epoch_age_seconds":89091,"freshness":"FRESH","line1":"1 43001U 17069A   26262.63717400 -.00000010  00000+0  00000+0 0  9997","line2":"2 43001  56.7791  59.9784 0007184 321.3049  38.6640  1.86231322 60369","mean_motion":1.86231322,"eccentricity":0.0007184,"inclination_deg":56.7791,"raan_deg":59.9784,"arg_perigee_deg":321.3049,"mean_anomaly_deg":38.664,"bstar":0,"rev_number":6036,"period_min":773.23190564045,"perigee_km":21507.971613983,"apogee_km":21548.067179494,"semimajor_km":27906.156396738,"source":"CELESTRAK","updated_at":"2026-09-20T09:00:46.674864Z"}}}